Location: Wangen+im+Allg�u
(47.7098°N, 9.8383°E)
Time: 09:53:32
(UTC+01:00)

ISS - Pass Details

Date: 08 January 2018
Orbit: 401 x 406 km, 51.6° (Epoch: 17 January)

Event Time Altitude Azimuth Distance (km) Brightness Sun altitude
Exits shadow 05:07:54 13° 64° (ENE) 1,306 -0.6 -29.4°
Drops below altitude 10° 05:08:20 10° 67° (ENE) 1,467 -0.2 -29.4°
Sets 05:10:29 0° 74° (ENE) 2,329 1.1 -29.0°
